Time,TemperatureF,DewpointF,PressureIn,WindDirection,WindDirectionDegrees,WindSpeedMPH,WindSpeedGustMPH,Humidity,HourlyPrecipIn,Conditions,Clouds,dailyrainin,SoftwareType,DateUTC
2013-09-21 00:02:00,38.5,34.9,30.05,NW,308,0.0,4.0,87,0.00,,,0.00,meteohub,2013-09-21 07:02:00,
2013-09-21 00:07:00,38.5,35.2,30.05,NW,308,0.0,3.0,88,0.00,,,0.00,meteohub,2013-09-21 07:07:00,
2013-09-21 00:12:00,38.3,35.1,30.04,NW,308,0.0,2.0,88,0.00,,,0.00,meteohub,2013-09-21 07:12:00,
2013-09-21 00:17:00,38.5,35.2,30.04,NW,308,0.0,1.0,88,0.00,,,0.00,meteohub,2013-09-21 07:17:00,
2013-09-21 00:22:00,38.1,34.5,30.04,NW,308,0.0,1.0,87,0.00,,,0.00,meteohub,2013-09-21 07:22:00,
2013-09-21 00:27:00,38.1,35.2,30.04,NW,308,0.0,1.0,89,0.00,,,0.00,meteohub,2013-09-21 07:27:00,
2013-09-21 00:32:00,37.8,34.5,30.04,NW,308,0.0,4.0,88,0.00,,,0.00,meteohub,2013-09-21 07:32:00,
2013-09-21 00:37:00,37.2,34.0,30.04,NW,308,1.0,4.0,88,0.00,,,0.00,meteohub,2013-09-21 07:37:00,
2013-09-21 00:42:00,37.0,34.2,30.04,NW,308,1.0,4.0,89,0.00,,,0.00,meteohub,2013-09-21 07:42:00,
2013-09-21 00:47:00,37.0,34.3,30.04,NW,308,0.0,2.0,90,0.00,,,0.00,meteohub,2013-09-21 07:47:00,
2013-09-21 00:57:00,37.0,34.2,30.05,NW,308,0.0,1.0,89,0.00,,,0.00,meteohub,2013-09-21 07:57:00,
2013-09-21 01:02:00,36.9,34.0,30.05,NW,308,0.0,0.0,89,0.00,,,0.00,meteohub,2013-09-21 08:02:00,
2013-09-21 01:07:00,36.7,34.0,30.05,NW,308,0.0,1.0,90,0.00,,,0.00,meteohub,2013-09-21 08:07:00,
2013-09-21 01:12:00,36.9,34.5,30.05,NW,308,2.0,2.0,91,0.00,,,0.00,meteohub,2013-09-21 08:12:00,
2013-09-21 01:17:00,36.3,33.4,30.05,NW,308,0.0,4.0,89,0.00,,,0.00,meteohub,2013-09-21 08:17:00,
2013-09-21 01:22:00,36.1,33.3,30.05,NW,308,0.0,4.0,89,0.00,,,0.00,meteohub,2013-09-21 08:22:00,
2013-09-21 01:27:00,36.0,33.1,30.04,NW,308,3.0,4.0,89,0.00,,,0.00,meteohub,2013-09-21 08:27:00,
2013-09-21 01:32:00,35.8,32.9,30.04,NW,308,0.0,3.0,89,0.00,,,0.00,meteohub,2013-09-21 08:32:00,
2013-09-21 01:37:00,35.2,32.4,30.04,NW,308,0.0,3.0,89,0.00,,,0.00,meteohub,2013-09-21 08:37:00,
2013-09-21 01:42:00,35.4,33.1,30.04,NW,308,0.0,3.0,91,0.00,,,0.00,meteohub,2013-09-21 08:42:00,
2013-09-21 01:47:00,35.6,33.3,30.04,NW,308,0.0,2.0,91,0.00,,,0.00,meteohub,2013-09-21 08:47:00,
2013-09-21 01:52:00,35.1,32.2,30.04,NW,308,0.0,1.0,89,0.00,,,0.00,meteohub,2013-09-21 08:52:00,
2013-09-21 01:57:00,34.9,32.0,30.04,NW,308,0.0,2.0,89,0.00,,,0.00,meteohub,2013-09-21 08:57:00,
2013-09-21 02:02:00,34.5,31.8,30.04,NW,308,0.0,2.0,90,0.00,,,0.00,meteohub,2013-09-21 09:02:00,
2013-09-21 02:07:00,34.5,32.2,30.04,NW,308,0.0,2.0,91,0.00,,,0.00,meteohub,2013-09-21 09:07:00,
2013-09-21 02:12:00,34.9,33.1,30.04,NW,308,0.0,2.0,93,0.00,,,0.00,meteohub,2013-09-21 09:12:00,
2013-09-21 02:17:00,35.1,33.3,30.04,NW,308,0.0,2.0,93,0.00,,,0.00,meteohub,2013-09-21 09:17:00,
2013-09-21 02:22:00,35.2,33.4,30.04,NW,308,0.0,0.0,93,0.00,,,0.00,meteohub,2013-09-21 09:22:00,
2013-09-21 02:27:00,35.4,33.6,30.04,NW,308,0.0,0.0,93,0.00,,,0.00,meteohub,2013-09-21 09:27:00,
2013-09-21 02:32:00,35.4,33.1,30.04,West,281,0.0,0.0,91,0.00,,,0.00,meteohub,2013-09-21 09:32:00,
2013-09-21 02:37:00,35.4,33.1,30.04,West,281,0.0,4.0,91,0.00,,,0.00,meteohub,2013-09-21 09:37:00,
2013-09-21 02:42:00,35.4,33.1,30.04,West,281,0.0,4.0,91,0.00,,,0.00,meteohub,2013-09-21 09:42:00,
2013-09-21 02:47:00,35.2,32.9,30.04,West,281,0.0,1.0,91,0.00,,,0.00,meteohub,2013-09-21 09:47:00,
2013-09-21 02:52:00,35.1,32.7,30.04,West,281,0.0,0.0,91,0.00,,,0.00,meteohub,2013-09-21 09:52:00,
2013-09-21 02:57:00,35.1,32.9,30.04,West,281,0.0,0.0,92,0.00,,,0.00,meteohub,2013-09-21 09:57:00,
2013-09-21 03:02:00,34.9,32.5,30.04,West,281,0.0,0.0,91,0.00,,,0.00,meteohub,2013-09-21 10:02:00,
2013-09-21 03:07:00,34.9,33.1,30.04,West,281,0.0,0.0,93,0.00,,,0.00,meteohub,2013-09-21 10:07:00,
2013-09-21 03:12:00,35.1,33.3,30.04,West,281,0.0,0.0,93,0.00,,,0.00,meteohub,2013-09-21 10:12:00,
2013-09-21 03:17:00,35.2,33.4,30.05,West,281,0.0,1.0,93,0.00,,,0.00,meteohub,2013-09-21 10:17:00,
2013-09-21 03:22:00,35.1,32.9,30.04,West,281,2.0,2.0,92,0.00,,,0.00,meteohub,2013-09-21 10:22:00,
2013-09-21 03:27:00,34.3,32.0,30.04,West,281,3.0,3.0,91,0.00,,,0.00,meteohub,2013-09-21 10:27:00,
2013-09-21 03:32:00,34.2,32.0,30.04,West,281,0.0,3.0,92,0.00,,,0.00,meteohub,2013-09-21 10:32:00,
2013-09-21 03:37:00,34.2,32.4,30.04,West,281,0.0,3.0,93,0.00,,,0.00,meteohub,2013-09-21 10:37:00,
2013-09-21 03:42:00,34.2,32.4,30.05,West,281,0.0,3.0,93,0.00,,,0.00,meteohub,2013-09-21 10:42:00,
2013-09-21 03:47:00,34.2,32.0,30.04,West,281,1.0,1.0,92,0.00,,,0.00,meteohub,2013-09-21 10:47:00,
2013-09-21 03:52:00,34.0,31.8,30.04,West,281,0.0,2.0,92,0.00,,,0.00,meteohub,2013-09-21 10:52:00,
2013-09-21 03:57:00,34.0,31.8,30.04,West,281,0.0,2.0,92,0.00,,,0.00,meteohub,2013-09-21 10:57:00,
2013-09-21 04:02:00,33.6,31.5,30.05,West,281,0.0,2.0,92,0.00,,,0.00,meteohub,2013-09-21 11:02:00,
2013-09-21 04:07:00,33.6,31.5,30.05,West,281,0.0,2.0,92,0.00,,,0.00,meteohub,2013-09-21 11:07:00,
2013-09-21 04:12:00,34.0,32.4,30.05,West,281,0.0,0.0,94,0.00,,,0.00,meteohub,2013-09-21 11:12:00,
2013-09-21 04:17:00,33.6,31.3,30.04,West,281,1.0,0.0,91,0.00,,,0.00,meteohub,2013-09-21 11:17:00,
2013-09-21 04:22:00,33.3,31.1,30.05,West,281,0.0,3.0,92,0.00,,,0.00,meteohub,2013-09-21 11:22:00,
2013-09-21 04:27:00,33.1,31.3,30.04,West,281,0.0,3.0,93,0.00,,,0.00,meteohub,2013-09-21 11:27:00,
2013-09-21 04:32:00,33.3,31.6,30.04,West,281,0.0,3.0,94,0.00,,,0.00,meteohub,2013-09-21 11:32:00,
2013-09-21 04:37:00,33.1,31.1,30.04,West,281,0.0,0.0,92,0.00,,,0.00,meteohub,2013-09-21 11:37:00,
2013-09-21 04:42:00,32.7,30.7,30.05,West,281,0.0,0.0,92,0.00,,,0.00,meteohub,2013-09-21 11:42:00,
2013-09-21 04:47:00,32.7,30.9,30.04,West,281,0.0,0.0,93,0.00,,,0.00,meteohub,2013-09-21 11:47:00,
2013-09-21 04:52:00,32.7,31.1,30.04,West,281,0.0,1.0,94,0.00,,,0.00,meteohub,2013-09-21 11:52:00,
2013-09-21 04:57:00,32.7,30.9,30.05,West,281,0.0,1.0,93,0.00,,,0.00,meteohub,2013-09-21 11:57:00,
2013-09-21 05:02:00,32.5,30.7,30.05,West,281,0.0,1.0,93,0.00,,,0.00,meteohub,2013-09-21 12:02:00,
2013-09-21 05:07:00,32.5,30.9,30.05,SSW,200,0.0,0.0,94,0.00,,,0.00,meteohub,2013-09-21 12:07:00,
2013-09-21 05:12:00,32.7,31.5,30.05,SSW,200,0.0,1.0,95,0.00,,,0.00,meteohub,2013-09-21 12:12:00,
2013-09-21 05:17:00,33.4,32.2,30.05,SSW,200,0.0,1.0,95,0.00,,,0.00,meteohub,2013-09-21 12:17:00,
2013-09-21 05:22:00,33.6,32.4,30.05,SSW,200,0.0,1.0,95,0.00,,,0.00,meteohub,2013-09-21 12:22:00,
2013-09-21 05:27:00,34.0,32.7,30.05,SSW,200,0.0,1.0,95,0.00,,,0.00,meteohub,2013-09-21 12:27:00,
2013-09-21 05:32:00,33.1,31.1,30.05,SSW,200,1.0,1.0,92,0.00,,,0.00,meteohub,2013-09-21 12:32:00,
2013-09-21 05:37:00,32.5,30.7,30.05,SSW,200,1.0,2.0,93,0.00,,,0.00,meteohub,2013-09-21 12:37:00,
2013-09-21 05:42:00,32.2,30.4,30.05,SSW,200,0.0,2.0,93,0.00,,,0.00,meteohub,2013-09-21 12:42:00,
2013-09-21 05:47:00,32.2,30.6,30.05,SSW,200,0.0,2.0,94,0.00,,,0.00,meteohub,2013-09-21 12:47:00,
2013-09-21 05:52:00,31.6,29.3,30.05,SSW,200,1.0,2.0,91,0.00,,,0.00,meteohub,2013-09-21 12:52:00,
2013-09-21 05:57:00,31.5,29.7,30.05,SSW,200,0.0,2.0,93,0.00,,,0.00,meteohub,2013-09-21 12:57:00,
2013-09-21 06:02:00,31.5,30.0,30.05,SSW,200,0.0,2.0,94,0.00,,,0.00,meteohub,2013-09-21 13:02:00,
2013-09-21 06:07:00,31.5,30.0,30.05,SSW,200,0.0,2.0,94,0.00,,,0.00,meteohub,2013-09-21 13:07:00,
2013-09-21 06:12:00,31.5,30.0,30.05,SSW,200,2.0,2.0,94,0.00,,,0.00,meteohub,2013-09-21 13:12:00,
2013-09-21 06:17:00,31.5,30.0,30.06,SSW,200,0.0,2.0,94,0.00,,,0.00,meteohub,2013-09-21 13:17:00,
2013-09-21 06:22:00,31.8,30.6,30.06,SSW,200,0.0,2.0,95,0.00,,,0.00,meteohub,2013-09-21 13:22:00,
2013-09-21 06:27:00,31.8,30.6,30.06,SSW,200,0.0,2.0,95,0.00,,,0.00,meteohub,2013-09-21 13:27:00,
2013-09-21 06:32:00,31.6,29.8,30.06,SSW,200,0.0,2.0,93,0.00,,,0.00,meteohub,2013-09-21 13:32:00,
2013-09-21 06:37:00,31.5,29.7,30.06,SSW,200,0.0,2.0,93,0.00,,,0.00,meteohub,2013-09-21 13:37:00,
2013-09-21 06:42:00,31.5,30.0,30.06,SSW,200,0.0,2.0,94,0.00,,,0.00,meteohub,2013-09-21 13:42:00,
2013-09-21 06:47:00,31.8,30.6,30.06,SSW,200,0.0,0.0,95,0.00,,,0.00,meteohub,2013-09-21 13:47:00,
2013-09-21 06:52:00,31.8,30.4,30.06,SSW,200,0.0,0.0,94,0.00,,,0.00,meteohub,2013-09-21 13:52:00,
2013-09-21 06:57:00,32.2,30.6,30.06,SSW,200,0.0,1.0,94,0.00,,,0.00,meteohub,2013-09-21 13:57:00,
2013-09-21 07:02:00,33.1,31.8,30.06,SSW,200,0.0,1.0,95,0.00,,,0.00,meteohub,2013-09-21 14:02:00,
2013-09-21 07:07:00,33.3,31.6,30.06,SSW,200,0.0,1.0,94,0.00,,,0.00,meteohub,2013-09-21 14:07:00,
2013-09-21 07:12:00,34.2,32.9,30.06,SSW,200,0.0,1.0,95,0.00,,,0.00,meteohub,2013-09-21 14:12:00,
2013-09-21 07:17:00,35.1,33.8,30.06,SSW,200,0.0,1.0,95,0.00,,,0.00,meteohub,2013-09-21 14:17:00,
2013-09-21 07:22:00,36.0,34.3,30.06,SSW,200,0.0,0.0,94,0.00,,,0.00,meteohub,2013-09-21 14:22:00,
2013-09-21 07:27:00,36.7,34.9,30.06,SSW,200,0.0,0.0,93,0.00,,,0.00,meteohub,2013-09-21 14:27:00,
2013-09-21 07:32:00,37.6,35.4,30.06,SSW,200,0.0,0.0,92,0.00,,,0.00,meteohub,2013-09-21 14:32:00,
2013-09-21 07:37:00,38.7,36.0,30.05,SSW,200,0.0,1.0,90,0.00,,,0.00,meteohub,2013-09-21 14:37:00,
2013-09-21 07:42:00,39.6,36.0,30.05,SSW,200,0.0,2.0,87,0.00,,,0.00,meteohub,2013-09-21 14:42:00,
2013-09-21 07:47:00,39.9,36.3,30.05,SSW,200,0.0,2.0,87,0.00,,,0.00,meteohub,2013-09-21 14:47:00,
2013-09-21 07:52:00,40.8,37.0,30.05,SSW,200,0.0,2.0,86,0.00,,,0.00,meteohub,2013-09-21 14:52:00,
2013-09-21 07:57:00,41.5,37.0,30.05,SSW,200,0.0,1.0,84,0.00,,,0.00,meteohub,2013-09-21 14:57:00,
2013-09-21 08:02:00,42.1,37.0,30.05,SSW,200,0.0,1.0,82,0.00,,,0.00,meteohub,2013-09-21 15:02:00,
2013-09-21 08:07:00,42.6,37.6,30.05,SSW,200,0.0,1.0,82,0.00,,,0.00,meteohub,2013-09-21 15:07:00,
2013-09-21 08:12:00,43.3,36.9,30.04,ENE,63,1.0,2.0,78,0.00,,,0.00,meteohub,2013-09-21 15:12:00,
2013-09-21 08:17:00,43.9,36.5,30.04,ENE,63,2.0,2.0,75,0.00,,,0.00,meteohub,2013-09-21 15:17:00,
2013-09-21 08:22:00,44.2,37.6,30.04,ENE,63,0.0,3.0,77,0.00,,,0.00,meteohub,2013-09-21 15:22:00,
2013-09-21 08:27:00,44.8,37.8,30.04,ENE,63,0.0,3.0,76,0.00,,,0.00,meteohub,2013-09-21 15:27:00,
2013-09-21 08:32:00,45.1,37.4,30.04,ENE,63,0.0,3.0,74,0.00,,,0.00,meteohub,2013-09-21 15:32:00,
2013-09-21 08:37:00,45.9,37.8,30.04,SSW,194,1.0,2.0,73,0.00,,,0.00,meteohub,2013-09-21 15:37:00,
2013-09-21 08:42:00,46.8,37.9,30.04,SSW,200,0.0,3.0,71,0.00,,,0.00,meteohub,2013-09-21 15:42:00,
2013-09-21 08:47:00,48.0,37.6,30.04,SSW,200,2.0,4.0,67,0.00,,,0.00,meteohub,2013-09-21 15:47:00,
2013-09-21 08:52:00,48.7,38.3,30.03,SW,235,2.0,4.0,67,0.00,,,0.00,meteohub,2013-09-21 15:52:00,
2013-09-21 08:57:00,49.5,39.4,30.03,SW,236,1.0,5.0,68,0.00,,,0.00,meteohub,2013-09-21 15:57:00,
2013-09-21 09:02:00,50.4,38.7,30.03,WSW,237,1.0,5.0,64,0.00,,,0.00,meteohub,2013-09-21 16:02:00,
2013-09-21 09:07:00,51.3,39.0,30.03,WSW,244,4.0,5.0,63,0.00,,,0.00,meteohub,2013-09-21 16:07:00,
2013-09-21 09:12:00,51.6,39.9,30.02,WSW,248,2.0,7.0,64,0.00,,,0.00,meteohub,2013-09-21 16:12:00,
2013-09-21 09:17:00,52.0,38.5,30.03,WSW,248,0.0,7.0,60,0.00,,,0.00,meteohub,2013-09-21 16:17:00,
2013-09-21 09:27:00,53.1,38.3,30.02,WSW,248,2.0,5.0,57,0.00,,,0.00,meteohub,2013-09-21 16:27:00,
2013-09-21 09:32:00,53.2,37.9,30.02,WSW,248,0.0,4.0,56,0.00,,,0.00,meteohub,2013-09-21 16:32:00,
2013-09-21 09:37:00,54.0,38.7,30.02,WSW,248,0.0,4.0,56,0.00,,,0.00,meteohub,2013-09-21 16:37:00,
2013-09-21 09:42:00,54.3,37.9,30.01,WSW,245,0.0,4.0,54,0.00,,,0.00,meteohub,2013-09-21 16:42:00,
2013-09-21 09:47:00,54.9,39.4,30.01,WSW,247,1.0,2.0,56,0.00,,,0.00,meteohub,2013-09-21 16:47:00,
2013-09-21 09:57:00,56.1,37.8,30.00,NE,41,1.0,2.0,50,0.00,,,0.00,meteohub,2013-09-21 16:57:00,
2013-09-21 10:02:00,56.3,37.4,30.00,NE,44,0.0,3.0,49,0.00,,,0.00,meteohub,2013-09-21 17:02:00,
2013-09-21 10:07:00,56.1,38.3,30.00,NW,304,2.0,3.0,51,0.00,,,0.00,meteohub,2013-09-21 17:07:00,
2013-09-21 10:12:00,56.1,38.3,29.99,NW,304,1.0,4.0,51,0.00,,,0.00,meteohub,2013-09-21 17:12:00,
2013-09-21 10:17:00,56.8,38.8,29.99,NW,304,0.0,4.0,51,0.00,,,0.00,meteohub,2013-09-21 17:17:00,
2013-09-21 10:22:00,57.9,40.5,29.99,WSW,254,1.0,4.0,52,0.00,,,0.00,meteohub,2013-09-21 17:22:00,
2013-09-21 10:27:00,58.5,38.8,29.98,WSW,253,0.0,3.0,48,0.00,,,0.00,meteohub,2013-09-21 17:27:00,
2013-09-21 10:32:00,58.8,39.7,29.98,West,265,2.0,4.0,49,0.00,,,0.00,meteohub,2013-09-21 17:32:00,
2013-09-21 10:37:00,59.4,39.2,29.97,West,265,0.0,5.0,47,0.00,,,0.00,meteohub,2013-09-21 17:37:00,
2013-09-21 10:42:00,59.5,38.7,29.97,NNW,348,1.0,5.0,46,0.00,,,0.00,meteohub,2013-09-21 17:42:00,
2013-09-21 10:47:00,59.4,40.3,29.97,NNW,348,0.0,4.0,49,0.00,,,0.00,meteohub,2013-09-21 17:47:00,
2013-09-21 10:52:00,59.9,39.0,29.96,NNW,348,0.0,4.0,46,0.00,,,0.00,meteohub,2013-09-21 17:52:00,
2013-09-21 10:57:00,60.6,41.4,29.96,NNW,348,0.0,4.0,49,0.00,,,0.00,meteohub,2013-09-21 17:57:00,
2013-09-21 11:02:00,61.5,41.2,29.96,NNE,21,5.0,5.0,47,0.00,,,0.00,meteohub,2013-09-21 18:02:00,
2013-09-21 11:07:00,62.1,40.5,29.95,NNE,20,1.0,6.0,45,0.00,,,0.00,meteohub,2013-09-21 18:07:00,
2013-09-21 11:12:00,63.0,41.4,29.95,ENE,74,2.0,6.0,45,0.00,,,0.00,meteohub,2013-09-21 18:12:00,
2013-09-21 11:17:00,64.0,40.5,29.94,ENE,59,4.0,9.0,42,0.00,,,0.00,meteohub,2013-09-21 18:17:00,
2013-09-21 11:22:00,64.6,40.3,29.94,ESE,109,0.0,9.0,41,0.00,,,0.00,meteohub,2013-09-21 18:22:00,
2013-09-21 11:27:00,65.1,41.5,29.94,ENE,63,1.0,9.0,42,0.00,,,0.00,meteohub,2013-09-21 18:27:00,
2013-09-21 11:32:00,65.5,41.2,29.94,North,350,4.0,8.0,41,0.00,,,0.00,meteohub,2013-09-21 18:32:00,
2013-09-21 11:37:00,65.7,41.9,29.93,ESE,109,2.0,6.0,42,0.00,,,0.00,meteohub,2013-09-21 18:37:00,
2013-09-21 11:42:00,66.0,39.0,29.93,ESE,113,5.0,8.0,37,0.00,,,0.00,meteohub,2013-09-21 18:42:00,
2013-09-21 11:47:00,66.2,41.7,29.93,East,90,1.0,9.0,41,0.00,,,0.00,meteohub,2013-09-21 18:47:00,
2013-09-21 11:52:00,66.7,41.0,29.92,NE,51,2.0,9.0,39,0.00,,,0.00,meteohub,2013-09-21 18:52:00,
2013-09-21 11:57:00,67.1,43.9,29.92,ESE,123,7.0,8.0,43,0.00,,,0.00,meteohub,2013-09-21 18:57:00,
2013-09-21 12:02:00,67.3,42.8,29.92,NNE,31,5.0,12.0,41,0.00,,,0.00,meteohub,2013-09-21 19:02:00,
2013-09-21 12:07:00,67.1,39.2,29.91,NE,55,4.0,12.0,36,0.00,,,0.00,meteohub,2013-09-21 19:07:00,
2013-09-21 12:12:00,66.9,38.3,29.91,ESE,103,3.0,12.0,35,0.00,,,0.00,meteohub,2013-09-21 19:12:00,
2013-09-21 12:17:00,66.7,40.3,29.91,NE,52,3.0,12.0,38,0.00,,,0.00,meteohub,2013-09-21 19:17:00,
2013-09-21 12:22:00,66.7,41.0,29.90,East,101,1.0,12.0,39,0.00,,,0.00,meteohub,2013-09-21 19:22:00,
2013-09-21 12:27:00,66.0,38.3,29.90,ENE,76,4.0,10.0,36,0.00,,,0.00,meteohub,2013-09-21 19:27:00,
2013-09-21 12:32:00,65.5,37.8,29.90,NE,41,4.0,10.0,36,0.00,,,0.00,meteohub,2013-09-21 19:32:00,
2013-09-21 12:37:00,65.1,38.8,29.90,SE,142,2.0,9.0,38,0.00,,,0.00,meteohub,2013-09-21 19:37:00,
2013-09-21 12:42:00,65.1,38.8,29.89,ENE,78,2.0,12.0,38,0.00,,,0.00,meteohub,2013-09-21 19:42:00,
2013-09-21 12:47:00,65.1,39.6,29.89,NE,44,5.0,12.0,39,0.00,,,0.00,meteohub,2013-09-21 19:47:00,
2013-09-21 12:52:00,64.9,38.1,29.89,East,96,2.0,12.0,37,0.00,,,0.00,meteohub,2013-09-21 19:52:00,
2013-09-21 12:57:00,64.9,38.7,29.88,NNE,29,2.0,10.0,38,0.00,,,0.00,meteohub,2013-09-21 19:57:00,
2013-09-21 13:02:00,64.9,38.7,29.88,NNE,21,5.0,10.0,38,0.00,,,0.00,meteohub,2013-09-21 20:02:00,
2013-09-21 13:07:00,65.5,41.2,29.88,ESE,105,4.0,10.0,41,0.00,,,0.00,meteohub,2013-09-21 20:07:00,
2013-09-21 13:12:00,66.4,38.7,29.88,East,92,6.0,10.0,36,0.00,,,0.00,meteohub,2013-09-21 20:12:00,
2013-09-21 13:17:00,66.2,39.2,29.88,East,89,6.0,9.0,37,0.00,,,0.00,meteohub,2013-09-21 20:17:00,
2013-09-21 13:22:00,65.7,37.9,29.87,ENE,62,2.0,14.0,36,0.00,,,0.00,meteohub,2013-09-21 20:22:00,
2013-09-21 13:27:00,65.7,38.7,29.87,East,98,5.0,14.0,37,0.00,,,0.00,meteohub,2013-09-21 20:27:00,
2013-09-21 13:32:00,66.2,39.2,29.87,East,92,0.0,14.0,37,0.00,,,0.00,meteohub,2013-09-21 20:32:00,
2013-09-21 13:37:00,66.2,39.2,29.87,East,87,6.0,12.0,37,0.00,,,0.00,meteohub,2013-09-21 20:37:00,
2013-09-21 13:42:00,66.4,39.9,29.86,ENE,57,3.0,16.0,38,0.00,,,0.00,meteohub,2013-09-21 20:42:00,
2013-09-21 13:47:00,66.4,38.7,29.86,East,96,3.0,16.0,36,0.00,,,0.00,meteohub,2013-09-21 20:47:00,
2013-09-21 13:52:00,65.5,38.5,29.86,East,84,5.0,8.0,37,0.00,,,0.00,meteohub,2013-09-21 20:52:00,
2013-09-21 13:57:00,65.5,37.0,29.86,East,94,1.0,9.0,35,0.00,,,0.00,meteohub,2013-09-21 20:57:00,
2013-09-21 14:02:00,65.5,37.8,29.86,ESE,114,0.0,9.0,36,0.00,,,0.00,meteohub,2013-09-21 21:02:00,
2013-09-21 14:07:00,65.7,37.9,29.86,ESE,114,1.0,9.0,36,0.00,,,0.00,meteohub,2013-09-21 21:07:00,
2013-09-21 14:12:00,65.8,39.6,29.86,East,93,1.0,8.0,38,0.00,,,0.00,meteohub,2013-09-21 21:12:00,
2013-09-21 14:22:00,66.0,38.3,29.85,East,92,0.0,9.0,36,0.00,,,0.00,meteohub,2013-09-21 21:22:00,
2013-09-21 14:27:00,66.0,37.6,29.85,East,84,1.0,8.0,35,0.00,,,0.00,meteohub,2013-09-21 21:27:00,
2013-09-21 14:32:00,66.4,38.7,29.84,ESE,103,5.0,8.0,36,0.00,,,0.00,meteohub,2013-09-21 21:32:00,
2013-09-21 14:37:00,66.9,40.5,29.84,NE,54,5.0,7.0,38,0.00,,,0.00,meteohub,2013-09-21 21:37:00,
2013-09-21 14:42:00,67.3,38.7,29.84,NE,42,4.0,11.0,35,0.00,,,0.00,meteohub,2013-09-21 21:42:00,
2013-09-21 14:47:00,67.3,37.9,29.83,East,101,5.0,14.0,34,0.00,,,0.00,meteohub,2013-09-21 21:47:00,
2013-09-21 14:52:00,66.9,37.6,29.83,ENE,57,10.0,14.0,34,0.00,,,0.00,meteohub,2013-09-21 21:52:00,
2013-09-21 14:57:00,66.0,37.6,29.84,East,97,5.0,11.0,35,0.00,,,0.00,meteohub,2013-09-21 21:57:00,
2013-09-21 15:02:00,65.8,37.4,29.84,NE,56,4.0,10.0,35,0.00,,,0.00,meteohub,2013-09-21 22:02:00,
2013-09-21 15:07:00,65.5,37.0,29.84,NE,42,2.0,10.0,35,0.00,,,0.00,meteohub,2013-09-21 22:07:00,
2013-09-21 15:12:00,65.5,37.0,29.83,SE,140,3.0,8.0,35,0.00,,,0.00,meteohub,2013-09-21 22:12:00,
2013-09-21 15:17:00,65.5,39.2,29.83,SSE,160,0.0,8.0,38,0.00,,,0.00,meteohub,2013-09-21 22:17:00,
2013-09-21 15:22:00,65.5,40.5,29.83,SSE,160,0.0,5.0,40,0.00,,,0.00,meteohub,2013-09-21 22:22:00,
2013-09-21 15:27:00,65.5,43.5,29.83,SSE,160,0.0,5.0,45,0.00,,,0.00,meteohub,2013-09-21 22:27:00,
2013-09-21 15:32:00,65.3,43.3,29.83,SSE,160,0.0,1.0,45,0.00,,,0.00,meteohub,2013-09-21 22:32:00,
2013-09-21 15:37:00,65.5,44.8,29.83,SW,232,1.0,4.0,47,0.00,,,0.00,meteohub,2013-09-21 22:37:00,
2013-09-21 15:42:00,65.7,40.6,29.82,South,184,4.0,4.0,40,0.00,,,0.00,meteohub,2013-09-21 22:42:00,
2013-09-21 15:47:00,66.0,38.3,29.82,SSW,196,0.0,7.0,36,0.00,,,0.00,meteohub,2013-09-21 22:47:00,
2013-09-21 15:52:00,65.8,40.8,29.82,NE,44,5.0,7.0,40,0.00,,,0.00,meteohub,2013-09-21 22:52:00,
2013-09-21 15:57:00,65.7,38.7,29.82,NE,42,3.0,12.0,37,0.00,,,0.00,meteohub,2013-09-21 22:57:00,
2013-09-21 16:02:00,65.5,38.5,29.81,NE,45,0.0,12.0,37,0.00,,,0.00,meteohub,2013-09-21 23:02:00,
2013-09-21 16:07:00,66.0,39.0,29.81,East,84,2.0,12.0,37,0.00,,,0.00,meteohub,2013-09-21 23:07:00,
2013-09-21 16:12:00,66.4,39.4,29.81,ENE,61,0.0,10.0,37,0.00,,,0.00,meteohub,2013-09-21 23:12:00,
2013-09-21 16:17:00,66.0,36.9,29.81,East,89,0.0,8.0,34,0.00,,,0.00,meteohub,2013-09-21 23:17:00,
2013-09-21 16:22:00,66.0,37.6,29.81,ENE,58,4.0,8.0,35,0.00,,,0.00,meteohub,2013-09-21 23:22:00,
2013-09-21 16:27:00,66.4,38.7,29.81,ENE,63,1.0,8.0,36,0.00,,,0.00,meteohub,2013-09-21 23:27:00,
2013-09-21 16:32:00,66.6,38.1,29.81,NE,46,6.0,6.0,35,0.00,,,0.00,meteohub,2013-09-21 23:32:00,
2013-09-21 16:37:00,65.8,38.8,29.81,East,87,3.0,8.0,37,0.00,,,0.00,meteohub,2013-09-21 23:37:00,
2013-09-21 16:42:00,65.5,38.5,29.81,NE,56,5.0,8.0,37,0.00,,,0.00,meteohub,2013-09-21 23:42:00,
2013-09-21 16:47:00,65.1,39.6,29.81,ENE,65,1.0,8.0,39,0.00,,,0.00,meteohub,2013-09-21 23:47:00,
2013-09-21 16:52:00,64.9,38.7,29.81,ENE,68,3.0,8.0,38,0.00,,,0.00,meteohub,2013-09-21 23:52:00,
2013-09-21 16:57:00,64.9,39.4,29.81,ESE,115,1.0,8.0,39,0.00,,,0.00,meteohub,2013-09-21 23:57:00,
2013-09-21 17:02:00,64.8,39.2,29.81,ENE,58,2.0,8.0,39,0.00,,,0.00,meteohub,2013-09-22 00:02:00,
2013-09-21 17:07:00,64.4,39.6,29.81,NE,51,4.0,7.0,40,0.00,,,0.00,meteohub,2013-09-22 00:07:00,
2013-09-21 17:17:00,64.2,38.7,29.81,ESE,107,2.0,5.0,39,0.00,,,0.00,meteohub,2013-09-22 00:17:00,
2013-09-21 17:22:00,64.4,37.6,29.81,East,101,1.0,5.0,37,0.00,,,0.00,meteohub,2013-09-22 00:22:00,
2013-09-21 17:27:00,64.6,37.8,29.81,ESE,107,0.0,5.0,37,0.00,,,0.00,meteohub,2013-09-22 00:27:00,
2013-09-21 17:32:00,64.6,38.5,29.80,NE,53,0.0,5.0,38,0.00,,,0.00,meteohub,2013-09-22 00:32:00,
2013-09-21 17:37:00,64.2,37.4,29.81,NE,53,0.0,5.0,37,0.00,,,0.00,meteohub,2013-09-22 00:37:00,
2013-09-21 17:42:00,63.9,40.3,29.81,NE,49,0.0,3.0,42,0.00,,,0.00,meteohub,2013-09-22 00:42:00,
2013-09-21 17:47:00,63.1,40.3,29.81,NE,49,1.0,3.0,43,0.00,,,0.00,meteohub,2013-09-22 00:47:00,
2013-09-21 17:52:00,62.2,41.2,29.80,West,267,0.0,3.0,46,0.00,,,0.00,meteohub,2013-09-22 00:52:00,
2013-09-21 17:57:00,61.3,42.6,29.80,West,267,2.0,4.0,50,0.00,,,0.00,meteohub,2013-09-22 00:57:00,
2013-09-21 18:02:00,60.3,44.4,29.80,West,269,3.0,4.0,56,0.00,,,0.00,meteohub,2013-09-22 01:02:00,
2013-09-21 18:07:00,58.6,43.0,29.80,West,268,0.0,4.0,56,0.00,,,0.00,meteohub,2013-09-22 01:07:00,
2013-09-21 18:12:00,58.3,43.2,29.80,West,268,1.0,4.0,57,0.00,,,0.00,meteohub,2013-09-22 01:12:00,
2013-09-21 18:17:00,57.7,43.9,29.80,West,268,2.0,3.0,60,0.00,,,0.00,meteohub,2013-09-22 01:17:00,
2013-09-21 18:22:00,57.0,43.7,29.80,West,268,0.0,3.0,61,0.00,,,0.00,meteohub,2013-09-22 01:22:00,
2013-09-21 18:27:00,56.7,43.7,29.80,West,268,0.0,4.0,62,0.00,,,0.00,meteohub,2013-09-22 01:27:00,
2013-09-21 18:32:00,56.5,43.2,29.80,West,268,0.0,4.0,61,0.00,,,0.00,meteohub,2013-09-22 01:32:00,
2013-09-21 18:37:00,56.5,43.2,29.80,WSW,243,1.0,3.0,61,0.00,,,0.00,meteohub,2013-09-22 01:37:00,
2013-09-21 18:42:00,56.7,43.3,29.80,WSW,243,2.0,4.0,61,0.00,,,0.00,meteohub,2013-09-22 01:42:00,
2013-09-21 18:52:00,55.0,43.9,29.80,WSW,249,4.0,6.0,66,0.00,,,0.00,meteohub,2013-09-22 01:52:00,
2013-09-21 18:57:00,55.2,43.3,29.80,SSW,202,1.0,7.0,64,0.00,,,0.00,meteohub,2013-09-22 01:57:00,
2013-09-21 19:02:00,55.9,43.5,29.80,WSW,246,4.0,7.0,63,0.00,,,0.00,meteohub,2013-09-22 02:02:00,
2013-09-21 19:07:00,55.9,43.5,29.80,WSW,252,3.0,6.0,63,0.00,,,0.00,meteohub,2013-09-22 02:07:00,
2013-09-21 19:12:00,55.8,43.3,29.80,WSW,252,0.0,6.0,63,0.00,,,0.00,meteohub,2013-09-22 02:12:00,
2013-09-21 19:17:00,55.6,43.2,29.80,WSW,253,0.0,6.0,63,0.00,,,0.00,meteohub,2013-09-22 02:17:00,
2013-09-21 19:22:00,55.2,42.4,29.80,West,261,2.0,5.0,62,0.00,,,0.00,meteohub,2013-09-22 02:22:00,
2013-09-21 19:32:00,53.4,42.3,29.80,WNW,283,0.0,7.0,66,0.00,,,0.00,meteohub,2013-09-22 02:32:00,
2013-09-21 19:37:00,53.1,42.1,29.80,WSW,256,2.0,7.0,66,0.00,,,0.00,meteohub,2013-09-22 02:37:00,
2013-09-21 19:42:00,52.9,41.9,29.80,SW,221,0.0,5.0,66,0.00,,,0.00,meteohub,2013-09-22 02:42:00,
2013-09-21 19:47:00,52.5,41.2,29.80,WSW,244,3.0,5.0,65,0.00,,,0.00,meteohub,2013-09-22 02:47:00,
2013-09-21 19:52:00,52.0,41.4,29.80,SW,229,3.0,8.0,67,0.00,,,0.00,meteohub,2013-09-22 02:52:00,
2013-09-21 19:57:00,52.9,41.4,29.80,SSW,212,7.0,8.0,65,0.00,,,0.00,meteohub,2013-09-22 02:57:00,
2013-09-21 20:02:00,54.1,41.0,29.80,SSW,211,3.0,8.0,61,0.00,,,0.00,meteohub,2013-09-22 03:02:00,
2013-09-21 20:07:00,54.7,41.0,29.80,SW,230,4.0,9.0,60,0.00,,,0.00,meteohub,2013-09-22 03:07:00,
2013-09-21 20:12:00,55.0,41.0,29.80,WSW,243,7.0,9.0,59,0.00,,,0.00,meteohub,2013-09-22 03:12:00,
2013-09-21 20:17:00,54.9,40.8,29.80,WSW,252,0.0,9.0,59,0.00,,,0.00,meteohub,2013-09-22 03:17:00,
2013-09-21 20:22:00,54.1,40.1,29.80,SW,223,5.0,8.0,59,0.00,,,0.00,meteohub,2013-09-22 03:22:00,
2013-09-21 20:27:00,54.5,40.1,29.80,SSW,205,2.0,7.0,58,0.00,,,0.00,meteohub,2013-09-22 03:27:00,
2013-09-21 20:32:00,55.6,40.1,29.79,SSW,207,5.0,7.0,56,0.00,,,0.00,meteohub,2013-09-22 03:32:00,
2013-09-21 20:37:00,56.1,40.1,29.79,SSW,193,3.0,8.0,55,0.00,,,0.00,meteohub,2013-09-22 03:37:00,
2013-09-21 20:42:00,55.2,40.3,29.79,WSW,239,1.0,8.0,57,0.00,,,0.00,meteohub,2013-09-22 03:42:00,
2013-09-21 20:47:00,53.8,40.3,29.80,SW,222,0.0,8.0,60,0.00,,,0.00,meteohub,2013-09-22 03:47:00,
2013-09-21 20:52:00,52.0,40.6,29.80,West,265,1.0,7.0,65,0.00,,,0.00,meteohub,2013-09-22 03:52:00,
2013-09-21 20:57:00,51.1,40.1,29.80,SSW,199,0.0,7.0,66,0.00,,,0.00,meteohub,2013-09-22 03:57:00,
2013-09-21 21:02:00,51.8,40.1,29.80,WNW,284,4.0,7.0,64,0.00,,,0.00,meteohub,2013-09-22 04:02:00,
2013-09-21 21:07:00,51.1,39.7,29.80,WNW,283,0.0,5.0,65,0.00,,,0.00,meteohub,2013-09-22 04:07:00,
2013-09-21 21:12:00,50.0,39.6,29.80,West,265,0.0,4.0,67,0.00,,,0.00,meteohub,2013-09-22 04:12:00,
2013-09-21 21:17:00,50.0,39.6,29.80,West,271,1.0,4.0,67,0.00,,,0.00,meteohub,2013-09-22 04:17:00,
2013-09-21 21:22:00,49.6,39.9,29.80,West,265,5.0,5.0,69,0.00,,,0.00,meteohub,2013-09-22 04:22:00,
2013-09-21 21:27:00,48.7,39.4,29.80,West,262,5.0,7.0,70,0.00,,,0.00,meteohub,2013-09-22 04:27:00,
2013-09-21 21:32:00,48.6,39.6,29.80,SSW,211,4.0,7.0,71,0.00,,,0.00,meteohub,2013-09-22 04:32:00,
2013-09-21 21:37:00,48.4,39.4,29.80,WSW,254,4.0,7.0,71,0.00,,,0.00,meteohub,2013-09-22 04:37:00,
2013-09-21 21:42:00,48.7,39.4,29.80,South,175,0.0,7.0,70,0.00,,,0.00,meteohub,2013-09-22 04:42:00,
2013-09-21 21:52:00,52.5,39.9,29.80,South,173,2.0,6.0,62,0.00,,,0.00,meteohub,2013-09-22 04:52:00,
2013-09-21 21:57:00,54.0,39.9,29.80,WSW,251,2.0,8.0,59,0.00,,,0.00,meteohub,2013-09-22 04:57:00,
2013-09-21 22:02:00,54.3,39.9,29.80,West,273,2.0,8.0,58,0.00,,,0.00,meteohub,2013-09-22 05:02:00,
2013-09-21 22:07:00,52.5,39.9,29.80,West,274,0.0,8.0,62,0.00,,,0.00,meteohub,2013-09-22 05:07:00,
2013-09-21 22:12:00,51.3,39.9,29.80,West,274,0.0,7.0,65,0.00,,,0.00,meteohub,2013-09-22 05:12:00,
2013-09-21 22:17:00,50.0,39.9,29.80,West,273,2.0,4.0,68,0.00,,,0.00,meteohub,2013-09-22 05:17:00,
2013-09-21 22:22:00,49.8,39.4,29.79,SW,226,2.0,5.0,67,0.00,,,0.00,meteohub,2013-09-22 05:22:00,
2013-09-21 22:27:00,50.9,39.6,29.79,South,186,0.0,7.0,65,0.00,,,0.00,meteohub,2013-09-22 05:27:00,
2013-09-21 22:37:00,48.9,39.6,29.79,NE,36,0.0,7.0,70,0.00,,,0.00,meteohub,2013-09-22 05:37:00,
2013-09-21 22:42:00,47.8,39.6,29.79,ENE,74,1.0,5.0,73,0.00,,,0.00,meteohub,2013-09-22 05:42:00,
2013-09-21 22:47:00,47.7,39.7,29.78,WSW,245,1.0,6.0,74,0.00,,,0.00,meteohub,2013-09-22 05:47:00,
2013-09-21 22:52:00,48.6,40.3,29.78,WSW,245,0.0,6.0,73,0.00,,,0.00,meteohub,2013-09-22 05:52:00,
2013-09-21 22:57:00,48.7,40.5,29.78,ENE,64,1.0,5.0,73,0.00,,,0.00,meteohub,2013-09-22 05:57:00,
2013-09-21 23:02:00,47.8,40.3,29.78,ENE,64,0.0,5.0,75,0.00,,,0.00,meteohub,2013-09-22 06:02:00,
2013-09-21 23:07:00,47.5,40.3,29.78,ENE,64,0.0,3.0,76,0.00,,,0.00,meteohub,2013-09-22 06:07:00,
2013-09-21 23:12:00,46.6,39.7,29.78,ENE,64,0.0,2.0,77,0.00,,,0.00,meteohub,2013-09-22 06:12:00,
2013-09-21 23:17:00,46.2,39.7,29.78,ENE,64,0.0,2.0,78,0.00,,,0.00,meteohub,2013-09-22 06:17:00,
2013-09-21 23:22:00,46.4,40.3,29.78,ESE,119,0.0,2.0,79,0.00,,,0.00,meteohub,2013-09-22 06:22:00,
2013-09-21 23:27:00,46.6,39.7,29.78,ESE,119,0.0,2.0,77,0.00,,,0.00,meteohub,2013-09-22 06:27:00,
2013-09-21 23:32:00,47.5,39.9,29.77,SSW,198,0.0,2.0,75,0.00,,,0.00,meteohub,2013-09-22 06:32:00,
2013-09-21 23:37:00,47.5,40.3,29.77,SSW,198,0.0,5.0,76,0.00,,,0.00,meteohub,2013-09-22 06:37:00,
2013-09-21 23:42:00,47.1,39.6,29.77,SSW,198,0.0,5.0,75,0.00,,,0.00,meteohub,2013-09-22 06:42:00,
2013-09-21 23:47:00,46.9,39.4,29.76,SSW,198,0.0,1.0,75,0.00,,,0.00,meteohub,2013-09-22 06:47:00,
2013-09-21 23:52:00,46.9,39.7,29.76,East,83,1.0,1.0,76,0.00,,,0.00,meteohub,2013-09-22 06:52:00,
2013-09-21 23:57:00,46.8,39.9,29.76,East,83,0.0,3.0,77,0.00,,,0.00,meteohub,2013-09-22 06:57:00,